| time (UTC) | temp F | wind direction | speed MPH | gust MPH | rain 1hr in | rain 24hr in | rain mn in | humidity % | barometer mb |
| 20260504050515 | 54 | 203 | 3.0 | 6.0 | 0.00 | 0.00 | 0.00 | 50 | 1000.7 |
| 20260504045515 | 54 | 203 | 3.0 | 6.0 | 0.00 | 0.00 | 0.00 | 50 | 1000.9 |
| 20260504044515 | 55 | 225 | 3.0 | 6.0 | 0.00 | 0.00 | 0.00 | 50 | 1001.0 |
| 20260504043516 | 55 | 225 | 3.0 | 6.0 | 0.00 | 0.00 | 0.00 | 50 | 1001.2 |
| 20260504042516 | 54 | 225 | 3.0 | 4.0 | 0.00 | 0.00 | 0.00 | 49 | 1001.4 |
| 20260504041517 | 54 | 225 | 2.0 | 4.0 | 0.00 | 0.00 | 0.00 | 50 | 1001.5 |
| 20260504040515 | 54 | 248 | 2.0 | 3.0 | 0.00 | 0.00 | 0.00 | 50 | 1001.8 |
| 20260504035516 | 54 | 248 | 3.0 | 4.0 | 0.00 | 0.00 | 0.00 | 52 | 1002.0 |
| 20260504034515 | 54 | 248 | 2.0 | 4.0 | 0.00 | 0.00 | 0.00 | 52 | 1002.1 |
| 20260504033515 | 54 | 248 | 2.0 | 3.0 | 0.00 | 0.00 | 0.00 | 51 | 1002.3 |
| 20260504032516 | 54 | 248 | 1.0 | 2.0 | 0.00 | 0.00 | 0.00 | 53 | 1002.5 |
| 20260504031515 | 55 | 0.0 | 2.0 | 0.00 | 0.00 | 0.00 | 47 | 1002.7 | |
| 20260504030515 | 55 | 248 | 1.0 | 1.0 | 0.00 | 0.00 | 0.00 | 45 | 1002.8 |
| 20260504025515 | 56 | 248 | 1.0 | 2.0 | 0.00 | 0.00 | 0.00 | 48 | 1002.9 |
| 20260504024515 | 57 | 0.0 | 0.0 | 0.00 | 0.00 | 0.00 | 42 | 1003.0 | |
| 20260504023515 | 57 | 248 | 1.0 | 2.0 | 0.00 | 0.00 | 0.00 | 40 | 1003.0 |
| 20260504022515 | 58 | 248 | 1.0 | 2.0 | 0.00 | 0.00 | 0.00 | 38 | 1003.0 |
| 20260504021535 | 59 | 248 | 1.0 | 2.0 | 0.00 | 0.00 | 0.00 | 38 | 1003.2 |
| 20260504020535 | 60 | 248 | 1.0 | 2.0 | 0.00 | 0.00 | 0.00 | 35 | 1003.0 |
| 20260504015535 | 61 | 248 | 1.0 | 2.0 | 0.00 | 0.00 | 0.00 | 34 | 1002.9 |
| 20260504014515 | 62 | 248 | 2.0 | 3.0 | 0.00 | 0.00 | 0.00 | 33 | 1003.0 |
| 20260504013515 | 63 | 248 | 1.0 | 3.0 | 0.00 | 0.00 | 0.00 | 32 | 1003.0 |
| 20260504012515 | 64 | 248 | 2.0 | 3.0 | 0.00 | 0.00 | 0.00 | 33 | 1003.2 |
| 20260504011516 | 65 | 248 | 1.0 | 4.0 | 0.00 | 0.00 | 0.00 | 31 | 1003.2 |
| 20260504010538 | 66 | 248 | 3.0 | 7.0 | 0.00 | 0.00 | 0.00 | 29 | 1003.3 |
| 20260504005517 | 67 | 248 | 4.0 | 8.0 | 0.00 | 0.00 | 0.00 | 29 | 1003.2 |
| 20260504004517 | 67 | 270 | 5.0 | 11.0 | 0.00 | 0.00 | 0.00 | 29 | 1003.2 |
| 20260504003517 | 67 | 270 | 3.0 | 9.0 | 0.00 | 0.00 | 0.00 | 29 | 1003.3 |
| 20260504002517 | 67 | 248 | 5.0 | 13.0 | 0.00 | 0.00 | 0.00 | 28 | 1003.4 |
| 20260504001558 | 68 | 225 | 5.0 | 11.0 | 0.00 | 0.00 | 0.00 | 28 | 1003.4 |
| 20260504000638 | 68 | 270 | 4.0 | 11.0 | 0.00 | 0.00 | 0.00 | 30 | 1003.4 |
| 20260503235537 | 68 | 225 | 4.0 | 10.0 | 0.00 | 0.00 | 0.00 | 28 | 1003.4 |
| 20260503234517 | 68 | 270 | 5.0 | 12.0 | 0.00 | 0.00 | 0.00 | 28 | 1003.5 |
| 20260503233517 | 69 | 293 | 5.0 | 12.0 | 0.00 | 0.00 | 0.00 | 27 | 1003.5 |
| 20260503232517 | 69 | 293 | 4.0 | 9.0 | 0.00 | 0.00 | 0.00 | 26 | 1003.6 |
| 20260503231517 | 69 | 270 | 4.0 | 9.0 | 0.00 | 0.00 | 0.00 | 28 | 1003.7 |
| 20260503230517 | 69 | 248 | 6.0 | 15.0 | 0.00 | 0.00 | 0.00 | 25 | 1003.8 |
| 20260503225517 | 70 | 270 | 6.0 | 14.0 | 0.00 | 0.00 | 0.00 | 26 | 1004.0 |
| 20260503224517 | 70 | 248 | 3.0 | 10.0 | 0.00 | 0.00 | 0.00 | 27 | 1004.0 |
| 20260503223517 | 70 | 293 | 4.0 | 9.0 | 0.00 | 0.00 | 0.00 | 26 | 1004.0 |
| 20260503222517 | 70 | 293 | 3.0 | 6.0 | 0.00 | 0.00 | 0.00 | 28 | 1004.2 |
| 20260503221517 | 71 | 270 | 4.0 | 10.0 | 0.00 | 0.00 | 0.00 | 26 | 1004.2 |
| 20260503220517 | 70 | 315 | 4.0 | 10.0 | 0.00 | 0.00 | 0.00 | 26 | 1004.2 |
| 20260503215517 | 70 | 315 | 2.0 | 8.0 | 0.00 | 0.00 | 0.00 | 26 | 1004.4 |
| 20260503214537 | 71 | 293 | 3.0 | 10.0 | 0.00 | 0.00 | 0.00 | 27 | 1004.5 |
| 20260503213517 | 70 | 293 | 5.0 | 10.0 | 0.00 | 0.00 | 0.00 | 26 | 1004.6 |
| 20260503212538 | 70 | 23 | 8.0 | 16.0 | 0.00 | 0.00 | 0.00 | 26 | 1004.8 |
| 20260503211537 | 70 | 270 | 6.0 | 14.0 | 0.00 | 0.00 | 0.00 | 26 | 1004.8 |
| 20260503210517 | 70 | 270 | 4.0 | 13.0 | 0.00 | 0.00 | 0.00 | 28 | 1004.9 |
| 20260503205517 | 70 | 293 | 7.0 | 13.0 | 0.00 | 0.00 | 0.00 | 27 | 1005.0 |
| 20260503204517 | 70 | 293 | 6.0 | 12.0 | 0.00 | 0.00 | 0.00 | 26 | 1005.1 |
| 20260503203517 | 70 | 293 | 5.0 | 17.0 | 0.00 | 0.00 | 0.00 | 25 | 1005.1 |
| 20260503202517 | 70 | 293 | 6.0 | 16.0 | 0.00 | 0.00 | 0.00 | 28 | 1005.3 |
| 20260503201517 | 70 | 270 | 7.0 | 15.0 | 0.00 | 0.00 | 0.00 | 26 | 1005.4 |
| 20260503200517 | 70 | 293 | 6.0 | 16.0 | 0.00 | 0.00 | 0.00 | 27 | 1005.5 |
| 20260503195517 | 70 | 0 | 4.0 | 14.0 | 0.00 | 0.00 | 0.00 | 29 | 1005.5 |
| 20260503194518 | 69 | 23 | 6.0 | 20.0 | 0.00 | 0.00 | 0.00 | 31 | 1005.6 |
| 20260503193517 | 70 | 315 | 8.0 | 15.0 | 0.00 | 0.00 | 0.00 | 29 | 1005.6 |
| 20260503192518 | 70 | 293 | 6.0 | 14.0 | 0.00 | 0.00 | 0.00 | 30 | 1005.5 |
| 20260503191517 | 69 | 0 | 6.0 | 14.0 | 0.00 | 0.00 | 0.00 | 30 | 1005.8 |
| 20260503190538 | 69 | 0 | 6.0 | 17.0 | 0.00 | 0.00 | 0.00 | 29 | 1005.8 |
| 20260503185517 | 69 | 0 | 7.0 | 16.0 | 0.00 | 0.00 | 0.00 | 29 | 1006.0 |
| 20260503184557 | 70 | 23 | 6.0 | 18.0 | 0.00 | 0.00 | 0.00 | 29 | 1005.8 |
| 20260503183517 | 69 | 23 | 6.0 | 14.0 | 0.00 | 0.00 | 0.00 | 32 | 1005.9 |
| 20260503182516 | 68 | 23 | 9.0 | 17.0 | 0.00 | 0.00 | 0.00 | 30 | 1005.7 |
| 20260503181516 | 69 | 23 | 8.0 | 17.0 | 0.00 | 0.00 | 0.00 | 33 | 1006.0 |
| 20260503180517 | 69 | 293 | 7.0 | 15.0 | 0.00 | 0.00 | 0.00 | 31 | 1006.1 |
| 20260503175518 | 68 | 23 | 6.0 | 11.0 | 0.00 | 0.00 | 0.00 | 39 | 1006.0 |
| 20260503174516 | 69 | 315 | 4.0 | 12.0 | 0.00 | 0.00 | 0.00 | 41 | 1006.2 |
| 20260503173517 | 69 | 0 | 6.0 | 15.0 | 0.00 | 0.00 | 0.00 | 39 | 1006.1 |
| 20260503172537 | 68 | 23 | 6.0 | 12.0 | 0.00 | 0.00 | 0.00 | 38 | 1006.5 |
| 20260503171516 | 67 | 338 | 7.0 | 15.0 | 0.00 | 0.00 | 0.00 | 39 | 1006.5 |
| 20260503170517 | 68 | 23 | 6.0 | 15.0 | 0.00 | 0.00 | 0.00 | 38 | 1006.4 |
| 20260503150517 | 65 | 23 | 6.0 | 13.0 | 0.00 | 0.00 | 0.00 | 47 | 1006.1 |
| 20260503130516 | 57 | 293 | 4.0 | 9.0 | 0.00 | 0.00 | 0.00 | 52 | 1005.4 |
| 20260503110516 | 53 | 203 | 1.0 | 3.0 | 0.00 | 0.00 | 0.00 | 53 | 1004.1 |
| 20260503081515 | 58 | 225 | 9.0 | 13.0 | 0.00 | 0.00 | 0.00 | 52 | 1005.1 |
| 20260503080516 | 58 | 225 | 8.0 | 15.0 | 0.00 | 0.00 | 0.00 | 53 | 1005.1 |